Location: D�nning
(49.2479°N, 12.8491°E)
Time: 15:39:22
(UTC+00:00)

Cosmos 1464 Rocket - Pass Details

Date: 18 September 2020
Orbit: 953 x 1000 km, 82.9° (Epoch: 23 October)

Event Time Altitude Azimuth Distance (km) Brightness Sun altitude
Rises 17:58:03 0° 163° (SSE) 3,617 6.7 -7.9°
Reaches altitude 10° 18:00:39 10° 156° (SSE) 2,676 6.0 -8.3°
Maximum altitude 18:06:18 41° 89° (E) 1,366 4.4 -9.2°
Drops below altitude 10° 18:12:00 10° 21° (NNE) 2,709 6.3 -10.1°
Sets 18:14:39 0° 15° (NNE) 3,666 7.0 -10.5°
